map of MHP home
MHP - Airport
Location
City:  Minsk, Minskaya (Minsk), Belarus
Name:Minsk-1
ICAO:UMMM
IATA:MHP

Details
Type:Airport (Aerodrome, Airfield)
Use:Public/Civil
Latitude:5351'52"N (53.864472)
Longitude:2732'23"E (27.539683)
Datum:WGS 1984
Elevation:748 ft (228 m)
Variation:7.72E (WMM2015 magnetic declination)
0.13 annual change
Runways:1
Longest:6562 × 197 ft (2000 × 60 m), paved

Time
Time Zone:UTC+2 (DST+3)

Weather
METAR:UMMM 291430Z 27004MPS 9999 BKN033 BKN100 17/10 Q1012 NOSIG RMK QFE740

Related Locations
Nearby:
Farthest:CHT: 11149 mi / 17943 km
Waitangi [Tuuta], Chatham Islands, NZ

Find:

   beyond  
but within

Other Information
Maps:
NOTAMs:
Links:
Sources:

  
flag of Belarus
flag of Minskaya (Minsk)
  

Sectional Chart

Flight Planning
at skyvector.com

Satellite Image

Google Maps Satellite view

 

Copyright © 2004-2016 Karl L. Swartz. All rights reserved.
The Great Circle Mapper name and logo are trademarks of the Great Circle Mapper.
All other trademarks mentioned herein belong to their respective owners.
Please see credits for attibutions and further copyright information.

  Follow gcmap on Facebook Follow gcmap on Twitter Follow gcmap on Google+ GCmap on LinkedIn

hCard Microformat

Geo Microformat